Time,TemperatureF,DewpointF,PressureIn,WindDirection,WindDirectionDegrees,WindSpeedMPH,WindSpeedGustMPH,Humidity,HourlyPrecipIn,Conditions,Clouds,dailyrainin,SoftwareType,DateUTC
2013-07-20 00:00:00,0.0,0.0,30.06,North,0,0.0,0.0,0,0.00,,---,0.00,VWS V14.01,2013-07-20 04:00:00,
2013-07-20 00:13:00,0.0,0.0,30.06,North,0,0.0,0.0,0,0.00,,---,0.00,VWS V14.01,2013-07-20 04:13:00,
2013-07-20 00:18:00,0.0,0.0,30.06,North,0,0.0,0.0,0,0.00,,---,0.00,VWS V14.01,2013-07-20 04:18:00,
2013-07-20 00:23:00,0.0,0.0,30.06,North,0,0.0,0.0,0,0.00,,---,0.00,VWS V14.01,2013-07-20 04:23:00,
2013-07-20 00:28:00,0.0,0.0,30.06,North,0,0.0,0.0,0,0.00,,---,0.00,VWS V14.01,2013-07-20 04:28:00,
2013-07-20 00:30:00,0.0,0.0,30.05,North,0,0.0,0.0,0,0.00,,---,0.00,VWS V14.01,2013-07-20 04:30:00,
2013-07-20 00:33:00,0.0,0.0,30.06,North,0,0.0,0.0,0,0.00,,---,0.00,VWS V14.01,2013-07-20 04:33:00,
2013-07-20 00:38:00,0.0,0.0,30.06,North,0,0.0,0.0,0,0.00,,---,0.00,VWS V14.01,2013-07-20 04:38:00,
2013-07-20 00:43:00,0.0,0.0,30.06,North,0,0.0,0.0,0,0.00,,---,0.00,VWS V14.01,2013-07-20 04:43:00,
2013-07-20 00:47:00,0.0,0.0,30.06,North,0,0.0,0.0,0,0.00,,---,0.00,VWS V14.01,2013-07-20 04:47:00,
2013-07-20 00:52:00,0.0,0.0,30.06,North,0,0.0,0.0,0,0.00,,---,0.00,VWS V14.01,2013-07-20 04:52:00,
2013-07-20 00:57:00,0.0,0.0,30.06,North,0,0.0,0.0,0,0.00,,---,0.00,VWS V14.01,2013-07-20 04:57:00,
2013-07-20 01:00:00,0.0,0.0,30.06,North,0,0.0,0.0,0,0.00,,---,0.00,VWS V14.01,2013-07-20 05:00:00,
2013-07-20 01:02:00,0.0,0.0,30.06,North,0,0.0,0.0,0,0.00,,---,0.00,VWS V14.01,2013-07-20 05:02:00,
2013-07-20 01:07:00,0.0,0.0,30.05,North,0,0.0,0.0,0,0.00,,---,0.00,VWS V14.01,2013-07-20 05:07:00,
2013-07-20 01:12:00,0.0,0.0,30.05,North,0,0.0,0.0,0,0.00,,---,0.00,VWS V14.01,2013-07-20 05:12:00,
2013-07-20 01:17:00,0.0,0.0,30.06,North,0,0.0,0.0,0,0.00,,---,0.00,VWS V14.01,2013-07-20 05:17:00,
2013-07-20 01:22:00,0.0,0.0,30.06,North,0,0.0,0.0,0,0.00,,---,0.00,VWS V14.01,2013-07-20 05:22:00,
2013-07-20 01:27:00,0.0,0.0,30.06,North,0,0.0,0.0,0,0.00,,---,0.00,VWS V14.01,2013-07-20 05:27:00,
2013-07-20 01:30:00,0.0,0.0,30.06,North,0,0.0,0.0,0,0.00,,---,0.00,VWS V14.01,2013-07-20 05:30:00,
2013-07-20 01:32:00,0.0,0.0,30.06,North,0,0.0,0.0,0,0.00,,---,0.00,VWS V14.01,2013-07-20 05:32:00,
2013-07-20 01:37:00,0.0,0.0,30.06,North,0,0.0,0.0,0,0.00,,---,0.00,VWS V14.01,2013-07-20 05:37:00,
2013-07-20 01:42:00,0.0,0.0,30.06,North,0,0.0,0.0,0,0.00,,---,0.00,VWS V14.01,2013-07-20 05:42:00,
2013-07-20 01:47:00,0.0,0.0,30.06,North,0,0.0,0.0,0,0.00,,---,0.00,VWS V14.01,2013-07-20 05:47:00,
2013-07-20 01:52:00,0.0,0.0,30.06,North,0,0.0,0.0,0,0.00,,---,0.00,VWS V14.01,2013-07-20 05:52:00,
2013-07-20 01:57:00,0.0,0.0,30.06,North,0,0.0,0.0,0,0.00,,---,0.00,VWS V14.01,2013-07-20 05:57:00,
2013-07-20 02:00:00,79.2,72.5,30.06,WSW,255,0.0,0.0,80,0.00,,---,0.00,VWS V14.01,2013-07-20 06:00:00,
2013-07-20 02:02:00,79.2,72.5,30.05,West,265,0.0,0.0,80,0.00,,---,0.00,VWS V14.01,2013-07-20 06:02:00,
2013-07-20 02:07:00,79.2,72.5,30.05,WSW,240,0.0,0.0,80,0.00,,---,0.00,VWS V14.01,2013-07-20 06:07:00,
2013-07-20 02:12:00,79.2,72.5,30.06,SW,231,0.0,0.0,80,0.00,,---,0.00,VWS V14.01,2013-07-20 06:12:00,
2013-07-20 02:17:00,79.2,72.5,30.05,West,264,0.0,0.0,80,0.00,,---,0.00,VWS V14.01,2013-07-20 06:17:00,
2013-07-20 02:22:00,79.1,72.0,30.05,WSW,257,0.0,0.0,79,0.00,,---,0.00,VWS V14.01,2013-07-20 06:22:00,
2013-07-20 02:27:00,79.1,72.0,30.05,WSW,245,0.0,0.0,79,0.00,,---,0.00,VWS V14.01,2013-07-20 06:27:00,
2013-07-20 02:30:00,79.1,72.0,30.04,WSW,238,0.0,0.0,79,0.00,,---,0.00,VWS V14.01,2013-07-20 06:30:00,
2013-07-20 02:32:00,79.1,72.0,30.04,WSW,254,0.0,0.0,79,0.00,,---,0.00,VWS V14.01,2013-07-20 06:32:00,
2013-07-20 02:37:00,79.1,72.0,30.05,WSW,251,0.0,0.0,79,0.00,,---,0.00,VWS V14.01,2013-07-20 06:37:00,
2013-07-20 02:42:00,79.1,72.0,30.05,SW,225,0.0,0.0,79,0.00,,---,0.00,VWS V14.01,2013-07-20 06:42:00,
2013-07-20 02:47:00,79.1,72.0,30.04,SW,222,0.0,0.0,79,0.00,,---,0.00,VWS V14.01,2013-07-20 06:47:00,
2013-07-20 02:52:00,78.7,72.0,30.04,SW,233,0.0,0.0,80,0.00,,---,0.00,VWS V14.01,2013-07-20 06:52:00,
2013-07-20 02:57:00,78.4,71.7,30.03,West,267,0.0,0.0,80,0.00,,---,0.00,VWS V14.01,2013-07-20 06:57:00,
2013-07-20 03:00:00,78.2,71.5,30.04,SW,229,0.0,0.0,80,0.00,,---,0.00,VWS V14.01,2013-07-20 07:00:00,
2013-07-20 03:02:00,78.1,71.8,30.04,SW,227,0.0,0.0,81,0.00,,---,0.00,VWS V14.01,2013-07-20 07:02:00,
2013-07-20 03:07:00,78.0,71.7,30.04,WSW,240,0.0,0.0,81,0.00,,---,0.00,VWS V14.01,2013-07-20 07:07:00,
2013-07-20 03:12:00,77.9,71.6,30.04,SW,221,0.0,0.0,81,0.00,,---,0.00,VWS V14.01,2013-07-20 07:12:00,
2013-07-20 03:17:00,77.8,71.5,30.04,WSW,248,0.0,0.0,81,0.00,,---,0.00,VWS V14.01,2013-07-20 07:17:00,
2013-07-20 03:22:00,77.8,71.5,30.04,SW,218,0.0,0.0,81,0.00,,---,0.00,VWS V14.01,2013-07-20 07:22:00,
2013-07-20 03:27:00,77.7,71.4,30.04,SW,219,0.0,0.0,81,0.00,,---,0.00,VWS V14.01,2013-07-20 07:27:00,
2013-07-20 03:30:00,77.7,71.4,30.04,SW,229,0.0,0.0,81,0.00,,---,0.00,VWS V14.01,2013-07-20 07:30:00,
2013-07-20 03:32:00,77.7,71.4,30.05,SW,231,0.0,0.0,81,0.00,,---,0.00,VWS V14.01,2013-07-20 07:32:00,
2013-07-20 03:37:00,77.7,71.4,30.04,SSW,204,0.0,0.0,81,0.00,,---,0.00,VWS V14.01,2013-07-20 07:37:00,
2013-07-20 03:42:00,77.7,71.4,30.04,SW,231,0.0,0.0,81,0.00,,---,0.00,VWS V14.01,2013-07-20 07:42:00,
2013-07-20 03:47:00,77.8,71.5,30.04,SW,215,0.0,0.0,81,0.00,,---,0.00,VWS V14.01,2013-07-20 07:47:00,
2013-07-20 03:52:00,77.8,71.5,30.04,SW,236,0.0,0.0,81,0.00,,---,0.00,VWS V14.01,2013-07-20 07:52:00,
2013-07-20 03:57:00,77.9,71.6,30.04,SW,223,0.0,0.0,81,0.00,,---,0.00,VWS V14.01,2013-07-20 07:57:00,
2013-07-20 04:00:00,77.8,71.5,30.04,SW,225,0.0,0.0,81,0.00,,---,0.00,VWS V14.01,2013-07-20 08:00:00,
2013-07-20 04:02:00,77.9,71.6,30.04,WSW,244,0.0,0.0,81,0.00,,---,0.00,VWS V14.01,2013-07-20 08:02:00,
2013-07-20 04:07:00,77.9,71.6,30.03,SW,230,0.0,0.0,81,0.00,,---,0.00,VWS V14.01,2013-07-20 08:07:00,
2013-07-20 04:12:00,78.1,71.8,30.03,SSW,211,0.0,0.0,81,0.00,,---,0.00,VWS V14.01,2013-07-20 08:12:00,
2013-07-20 04:17:00,78.1,71.8,30.03,WSW,249,0.0,0.0,81,0.00,,---,0.00,VWS V14.01,2013-07-20 08:17:00,
2013-07-20 04:22:00,78.0,71.7,30.03,WSW,242,0.0,0.0,81,0.00,,---,0.00,VWS V14.01,2013-07-20 08:22:00,
2013-07-20 04:27:00,77.9,71.6,30.03,SW,223,0.0,0.0,81,0.00,,---,0.00,VWS V14.01,2013-07-20 08:27:00,
2013-07-20 04:30:00,77.8,71.5,30.03,SW,224,0.0,0.0,81,0.00,,---,0.00,VWS V14.01,2013-07-20 08:30:00,
2013-07-20 04:32:00,77.8,71.5,30.03,WSW,239,0.0,0.0,81,0.00,,---,0.00,VWS V14.01,2013-07-20 08:32:00,
2013-07-20 04:37:00,77.8,71.1,30.03,SSW,212,0.0,0.0,80,0.00,,---,0.00,VWS V14.01,2013-07-20 08:37:00,
2013-07-20 04:42:00,77.8,71.1,30.04,SW,214,0.0,0.0,80,0.00,,---,0.00,VWS V14.01,2013-07-20 08:42:00,
2013-07-20 04:47:00,77.8,71.1,30.04,WSW,250,0.0,0.0,80,0.00,,---,0.00,VWS V14.01,2013-07-20 08:47:00,
2013-07-20 04:52:00,77.7,71.0,30.03,WSW,239,0.0,0.0,80,0.00,,---,0.00,VWS V14.01,2013-07-20 08:52:00,
2013-07-20 04:57:00,77.7,71.0,30.03,WSW,247,0.0,0.0,80,0.00,,---,0.00,VWS V14.01,2013-07-20 08:57:00,
2013-07-20 05:00:00,77.6,70.9,30.03,WSW,248,0.0,0.0,80,0.00,,---,0.00,VWS V14.01,2013-07-20 09:00:00,
2013-07-20 05:02:00,77.5,70.8,30.04,WSW,239,0.0,0.0,80,0.00,,---,0.00,VWS V14.01,2013-07-20 09:02:00,
2013-07-20 05:07:00,77.5,70.8,30.04,WSW,246,0.0,0.0,80,0.00,,---,0.00,VWS V14.01,2013-07-20 09:07:00,
2013-07-20 05:12:00,77.4,70.8,30.04,SW,231,0.0,0.0,80,0.00,,---,0.00,VWS V14.01,2013-07-20 09:12:00,
2013-07-20 05:17:00,77.3,70.7,30.04,WSW,254,0.0,0.0,80,0.00,,---,0.00,VWS V14.01,2013-07-20 09:17:00,
2013-07-20 05:22:00,77.3,70.7,30.04,WSW,238,0.0,0.0,80,0.00,,---,0.00,VWS V14.01,2013-07-20 09:22:00,
2013-07-20 05:27:00,77.3,70.7,30.04,WSW,244,0.0,0.0,80,0.00,,---,0.00,VWS V14.01,2013-07-20 09:27:00,
2013-07-20 05:30:00,77.3,70.7,30.04,SW,232,0.0,0.0,80,0.00,,---,0.00,VWS V14.01,2013-07-20 09:30:00,
2013-07-20 05:32:00,77.3,70.3,30.04,West,275,0.0,0.0,79,0.00,,---,0.00,VWS V14.01,2013-07-20 09:32:00,
2013-07-20 05:37:00,77.2,70.2,30.03,West,264,0.0,0.0,79,0.00,,---,0.00,VWS V14.01,2013-07-20 09:37:00,
2013-07-20 05:42:00,77.2,70.2,30.03,WSW,258,0.0,0.0,79,0.00,,---,0.00,VWS V14.01,2013-07-20 09:42:00,
2013-07-20 05:47:00,77.1,70.1,30.03,West,270,0.0,0.0,79,0.00,,---,0.00,VWS V14.01,2013-07-20 09:47:00,
2013-07-20 05:52:00,77.1,70.1,30.03,WSW,244,0.0,0.0,79,0.00,,---,0.00,VWS V14.01,2013-07-20 09:52:00,
2013-07-20 05:57:00,77.0,70.0,30.03,WSW,250,0.0,0.0,79,0.00,,---,0.00,VWS V14.01,2013-07-20 09:57:00,
2013-07-20 06:00:00,77.0,70.0,30.03,WSW,254,0.0,0.0,79,0.00,,---,0.00,VWS V14.01,2013-07-20 10:00:00,
2013-07-20 06:02:00,76.9,69.9,30.03,West,263,0.0,0.0,79,0.00,,---,0.00,VWS V14.01,2013-07-20 10:02:00,
2013-07-20 06:07:00,76.9,69.9,30.03,WSW,247,0.0,0.0,79,0.00,,---,0.00,VWS V14.01,2013-07-20 10:07:00,
2013-07-20 06:12:00,76.8,69.8,30.03,WSW,257,0.0,0.0,79,0.00,,---,0.00,VWS V14.01,2013-07-20 10:12:00,
2013-07-20 06:17:00,76.7,70.1,30.03,WSW,249,0.0,0.0,80,0.00,,---,0.00,VWS V14.01,2013-07-20 10:17:00,
2013-07-20 06:22:00,76.6,70.0,30.03,WSW,252,0.0,0.0,80,0.00,,---,0.00,VWS V14.01,2013-07-20 10:22:00,
2013-07-20 06:27:00,76.6,70.0,30.03,WSW,252,0.0,0.0,80,0.00,,---,0.00,VWS V14.01,2013-07-20 10:27:00,
2013-07-20 06:30:00,76.6,70.0,30.03,WSW,257,0.0,0.0,80,0.00,,---,0.00,VWS V14.01,2013-07-20 10:30:00,
2013-07-20 06:32:00,76.6,70.0,30.03,WSW,252,0.0,0.0,80,0.00,,---,0.00,VWS V14.01,2013-07-20 10:32:00,
2013-07-20 06:37:00,76.6,70.0,30.03,WSW,244,0.0,0.0,80,0.00,,---,0.00,VWS V14.01,2013-07-20 10:37:00,
2013-07-20 06:42:00,76.6,70.0,30.04,West,259,0.0,0.0,80,0.00,,---,0.00,VWS V14.01,2013-07-20 10:42:00,
2013-07-20 06:47:00,76.7,70.1,30.03,WSW,257,0.0,0.0,80,0.00,,---,0.00,VWS V14.01,2013-07-20 10:47:00,
2013-07-20 06:52:00,76.8,70.2,30.04,WSW,253,0.0,0.0,80,0.00,,---,0.00,VWS V14.01,2013-07-20 10:52:00,
2013-07-20 06:57:00,76.9,70.3,30.04,WSW,257,0.0,0.0,80,0.00,,---,0.00,VWS V14.01,2013-07-20 10:57:00,
2013-07-20 07:00:00,77.0,70.4,30.04,WSW,241,0.0,0.0,80,0.00,,---,0.00,VWS V14.01,2013-07-20 11:00:00,
2013-07-20 07:02:00,77.0,70.4,30.04,WSW,242,0.0,0.0,80,0.00,,---,0.00,VWS V14.01,2013-07-20 11:02:00,
2013-07-20 07:07:00,77.1,70.5,30.04,WSW,249,0.0,0.0,80,0.00,,---,0.00,VWS V14.01,2013-07-20 11:07:00,
2013-07-20 07:12:00,77.3,70.3,30.04,WSW,254,0.0,0.0,79,0.00,,---,0.00,VWS V14.01,2013-07-20 11:12:00,
2013-07-20 07:17:00,77.5,70.5,30.04,WSW,250,0.0,0.0,79,0.00,,---,0.00,VWS V14.01,2013-07-20 11:17:00,
2013-07-20 07:22:00,77.6,70.9,30.04,WSW,254,0.0,0.0,80,0.00,,---,0.00,VWS V14.01,2013-07-20 11:22:00,
2013-07-20 07:27:00,77.8,71.1,30.04,SW,231,0.0,0.0,80,0.00,,---,0.00,VWS V14.01,2013-07-20 11:27:00,
2013-07-20 07:30:00,77.9,71.2,30.04,WSW,244,0.0,0.0,80,0.00,,---,0.00,VWS V14.01,2013-07-20 11:30:00,
2013-07-20 07:32:00,77.9,71.2,30.04,WSW,238,0.0,0.0,80,0.00,,---,0.00,VWS V14.01,2013-07-20 11:32:00,
2013-07-20 07:37:00,77.9,71.2,30.05,WSW,242,0.0,0.0,80,0.00,,---,0.00,VWS V14.01,2013-07-20 11:37:00,
2013-07-20 07:42:00,77.8,71.1,30.04,WSW,251,0.0,0.0,80,0.00,,---,0.00,VWS V14.01,2013-07-20 11:42:00,
2013-07-20 07:47:00,77.8,71.1,30.04,West,259,0.0,0.0,80,0.00,,---,0.00,VWS V14.01,2013-07-20 11:47:00,
2013-07-20 07:52:00,77.9,71.2,30.04,WSW,241,0.0,0.0,80,0.00,,---,0.00,VWS V14.01,2013-07-20 11:52:00,
2013-07-20 07:57:00,78.0,71.3,30.05,West,269,0.0,0.0,80,0.00,,---,0.00,VWS V14.01,2013-07-20 11:57:00,
2013-07-20 08:00:00,78.1,71.8,30.05,WSW,251,0.0,0.0,81,0.00,,---,0.00,VWS V14.01,2013-07-20 12:00:00,
2013-07-20 08:02:00,78.1,71.8,30.05,WSW,257,0.0,0.0,81,0.00,,---,0.00,VWS V14.01,2013-07-20 12:02:00,
2013-07-20 08:07:00,78.3,72.0,30.05,West,260,0.0,0.0,81,0.00,,---,0.00,VWS V14.01,2013-07-20 12:07:00,
2013-07-20 08:12:00,78.5,72.2,30.05,WNW,298,0.0,0.0,81,0.00,,---,0.00,VWS V14.01,2013-07-20 12:12:00,
2013-07-20 08:17:00,78.8,72.5,30.05,WSW,240,0.0,0.0,81,0.00,,---,0.00,VWS V14.01,2013-07-20 12:17:00,
2013-07-20 08:21:00,79.1,72.8,30.05,SW,217,0.0,0.0,81,0.00,,---,0.00,VWS V14.01,2013-07-20 12:21:00,
2013-07-20 08:26:00,79.4,72.7,30.05,WSW,246,0.0,0.0,80,0.00,,---,0.00,VWS V14.01,2013-07-20 12:26:00,
2013-07-20 08:30:00,79.7,73.0,30.05,West,277,0.0,0.0,80,0.00,,---,0.00,VWS V14.01,2013-07-20 12:30:00,
2013-07-20 08:31:00,79.8,73.1,30.05,WSW,246,0.0,0.0,80,0.00,,---,0.00,VWS V14.01,2013-07-20 12:31:00,
2013-07-20 08:36:00,79.8,72.7,30.05,WSW,248,0.0,0.0,79,0.00,,---,0.00,VWS V14.01,2013-07-20 12:36:00,
2013-07-20 08:41:00,80.0,72.9,30.05,WSW,247,0.0,0.0,79,0.00,,---,0.00,VWS V14.01,2013-07-20 12:41:00,
2013-07-20 08:46:00,80.3,73.2,30.06,WNW,284,0.0,0.0,79,0.00,,---,0.00,VWS V14.01,2013-07-20 12:46:00,
2013-07-20 08:51:00,80.6,73.5,30.05,WSW,246,0.0,0.0,79,0.00,,---,0.00,VWS V14.01,2013-07-20 12:51:00,
2013-07-20 08:56:00,80.7,73.2,30.06,WSW,240,0.0,0.0,78,0.00,,---,0.00,VWS V14.01,2013-07-20 12:56:00,
2013-07-20 09:00:00,80.7,73.2,30.06,WSW,249,0.0,0.0,78,0.00,,---,0.00,VWS V14.01,2013-07-20 13:00:00,
2013-07-20 09:01:00,80.9,73.4,30.06,WSW,245,0.0,0.0,78,0.00,,---,0.00,VWS V14.01,2013-07-20 13:01:00,
2013-07-20 09:06:00,81.3,73.4,30.06,West,261,0.0,0.0,77,0.00,,---,0.00,VWS V14.01,2013-07-20 13:06:00,
2013-07-20 09:11:00,81.6,73.7,30.06,WNW,290,0.0,0.0,77,0.00,,---,0.00,VWS V14.01,2013-07-20 13:11:00,
2013-07-20 09:16:00,81.7,73.4,30.06,WSW,238,0.0,0.0,76,0.00,,---,0.00,VWS V14.01,2013-07-20 13:16:00,
2013-07-20 09:21:00,81.8,73.5,30.06,West,262,0.0,0.0,76,0.00,,---,0.00,VWS V14.01,2013-07-20 13:21:00,
2013-07-20 09:26:00,82.1,73.8,30.06,WNW,284,0.0,0.0,76,0.00,,---,0.00,VWS V14.01,2013-07-20 13:26:00,
2013-07-20 09:30:00,82.2,73.5,30.06,WNW,294,0.0,0.0,75,0.00,,---,0.00,VWS V14.01,2013-07-20 13:30:00,
2013-07-20 09:31:00,82.2,73.5,30.06,SW,227,0.0,0.0,75,0.00,,---,0.00,VWS V14.01,2013-07-20 13:31:00,
2013-07-20 09:36:00,82.1,73.4,30.06,SW,236,0.0,0.0,75,0.00,,---,0.00,VWS V14.01,2013-07-20 13:36:00,
2013-07-20 09:41:00,82.2,73.5,30.05,West,263,0.0,0.0,75,0.00,,---,0.00,VWS V14.01,2013-07-20 13:41:00,
2013-07-20 09:46:00,82.5,73.8,30.05,West,273,0.0,0.0,75,0.00,,---,0.00,VWS V14.01,2013-07-20 13:46:00,
2013-07-20 09:51:00,82.6,73.5,30.06,West,271,0.0,0.0,74,0.00,,---,0.00,VWS V14.01,2013-07-20 13:51:00,
2013-07-20 09:56:00,82.5,73.4,30.06,NW,308,0.0,0.0,74,0.00,,---,0.00,VWS V14.01,2013-07-20 13:56:00,
2013-07-20 10:00:00,82.4,72.9,30.06,WSW,239,0.0,0.0,73,0.00,,---,0.00,VWS V14.01,2013-07-20 14:00:00,
2013-07-20 10:01:00,82.4,73.3,30.06,West,279,0.0,0.0,74,0.00,,---,0.00,VWS V14.01,2013-07-20 14:01:00,
2013-07-20 10:06:00,82.9,73.4,30.06,West,272,0.0,0.0,73,0.00,,---,0.00,VWS V14.01,2013-07-20 14:06:00,
2013-07-20 10:11:00,82.8,72.9,30.06,WSW,249,0.0,0.0,72,0.00,,---,0.00,VWS V14.01,2013-07-20 14:11:00,
2013-07-20 10:21:00,82.1,72.2,30.05,SW,235,0.0,0.0,72,0.00,,---,0.00,VWS V14.01,2013-07-20 14:21:00,
2013-07-20 10:26:00,82.0,72.1,30.05,West,273,0.0,0.0,72,0.00,,---,0.00,VWS V14.01,2013-07-20 14:26:00,
2013-07-20 10:30:00,82.0,72.1,30.06,WSW,248,0.0,0.0,72,0.00,,---,0.00,VWS V14.01,2013-07-20 14:30:00,
2013-07-20 10:31:00,82.0,72.1,30.06,West,267,0.0,0.0,72,0.00,,---,0.00,VWS V14.01,2013-07-20 14:31:00,
2013-07-20 10:36:00,82.0,72.1,30.06,West,267,0.0,0.0,72,0.00,,---,0.00,VWS V14.01,2013-07-20 14:36:00,
2013-07-20 10:41:00,82.5,73.0,30.06,SW,225,0.0,0.0,73,0.00,,---,0.00,VWS V14.01,2013-07-20 14:41:00,
2013-07-20 10:46:00,83.0,73.1,30.06,SW,229,0.0,0.0,72,0.00,,---,0.00,VWS V14.01,2013-07-20 14:46:00,
2013-07-20 10:51:00,83.3,72.9,30.05,SW,232,0.0,0.0,71,0.00,,---,0.00,VWS V14.01,2013-07-20 14:51:00,
2013-07-20 10:56:00,83.7,72.9,30.06,SW,234,0.0,0.0,70,0.00,,---,0.00,VWS V14.01,2013-07-20 14:56:00,
2013-07-20 11:00:00,82.4,72.9,30.06,WSW,239,0.0,0.0,73,0.00,,---,0.00,VWS V14.01,2013-07-20 15:00:00,
2013-07-20 11:01:00,83.8,72.6,30.06,WSW,250,0.0,0.0,69,0.00,,---,0.00,VWS V14.01,2013-07-20 15:01:00,
2013-07-20 11:06:00,83.8,72.6,30.06,SW,222,0.0,0.0,69,0.00,,---,0.00,VWS V14.01,2013-07-20 15:06:00,
2013-07-20 11:11:00,82.0,70.0,30.07,SW,219,0.0,0.0,67,0.00,,---,0.00,VWS V14.01,2013-07-20 15:11:00,
2013-07-20 11:16:00,81.0,69.4,30.07,SW,229,0.0,0.0,68,0.00,,---,0.00,VWS V14.01,2013-07-20 15:16:00,
2013-07-20 11:21:00,80.8,69.7,30.06,WSW,241,0.0,0.0,69,0.00,,---,0.00,VWS V14.01,2013-07-20 15:21:00,
2013-07-20 11:26:00,80.5,70.2,30.06,SW,220,0.0,0.0,71,0.00,,---,0.00,VWS V14.01,2013-07-20 15:26:00,
2013-07-20 11:30:00,80.6,70.3,30.06,WSW,238,0.0,0.0,71,0.00,,---,0.00,VWS V14.01,2013-07-20 15:30:00,
2013-07-20 11:31:00,80.6,70.3,30.07,WSW,248,0.0,0.0,71,0.00,,---,0.00,VWS V14.01,2013-07-20 15:31:00,
2013-07-20 11:36:00,79.9,71.7,30.07,SW,217,0.0,0.0,76,0.00,,---,0.00,VWS V14.01,2013-07-20 15:36:00,
2013-07-20 11:41:00,78.7,70.5,30.07,West,261,0.0,0.0,76,0.00,,---,0.00,VWS V14.01,2013-07-20 15:41:00,
2013-07-20 11:46:00,78.4,70.6,30.07,SW,235,0.0,0.0,77,0.00,,---,0.00,VWS V14.01,2013-07-20 15:46:00,
2013-07-20 11:51:00,78.1,70.7,30.07,SW,219,0.0,0.0,78,0.00,,---,0.00,VWS V14.01,2013-07-20 15:51:00,
2013-07-20 11:56:00,78.3,70.9,30.07,SW,215,0.0,0.0,78,0.00,,---,0.00,VWS V14.01,2013-07-20 15:56:00,
2013-07-20 12:00:00,78.4,71.0,30.07,SW,226,0.0,0.0,78,0.00,,---,0.00,VWS V14.01,2013-07-20 16:00:00,
2013-07-20 12:01:00,78.4,71.0,30.07,SW,230,0.0,0.0,78,0.00,,---,0.00,VWS V14.01,2013-07-20 16:01:00,
2013-07-20 12:06:00,78.9,71.8,30.07,SW,216,0.0,0.0,79,0.00,,---,0.00,VWS V14.01,2013-07-20 16:06:00,
2013-07-20 12:11:00,79.1,71.7,30.07,SW,225,0.0,0.0,78,0.00,,---,0.00,VWS V14.01,2013-07-20 16:11:00,
2013-07-20 12:16:00,79.2,71.4,30.07,SW,221,0.0,0.0,77,0.00,,---,0.00,VWS V14.01,2013-07-20 16:16:00,
2013-07-20 12:21:00,79.5,70.5,30.06,SW,219,0.0,0.0,74,0.00,,---,0.00,VWS V14.01,2013-07-20 16:21:00,
2013-07-20 12:26:00,80.3,70.9,30.06,West,260,0.0,0.0,73,0.00,,---,0.00,VWS V14.01,2013-07-20 16:26:00,
2013-07-20 12:30:00,80.8,70.9,30.06,SW,220,0.0,0.0,72,0.00,,---,0.00,VWS V14.01,2013-07-20 16:30:00,
2013-07-20 12:31:00,81.2,70.9,30.06,SW,215,0.0,0.0,71,0.00,,---,0.00,VWS V14.01,2013-07-20 16:31:00,
2013-07-20 12:36:00,81.6,71.3,30.05,SW,223,0.0,0.0,71,0.00,,---,0.00,VWS V14.01,2013-07-20 16:36:00,
2013-07-20 12:41:00,81.7,71.8,30.06,SW,232,0.0,0.0,72,0.00,,---,0.00,VWS V14.01,2013-07-20 16:41:00,
2013-07-20 12:46:00,81.6,71.3,30.06,SSW,205,0.0,0.0,71,0.00,,---,0.00,VWS V14.01,2013-07-20 16:46:00,
2013-07-20 12:51:00,81.1,71.6,30.05,SW,225,0.0,0.0,73,0.00,,---,0.00,VWS V14.01,2013-07-20 16:51:00,
2013-07-20 12:56:00,80.8,71.7,30.05,WSW,242,0.0,0.0,74,0.00,,---,0.00,VWS V14.01,2013-07-20 16:56:00,
2013-07-20 13:00:00,80.5,71.5,30.05,SW,227,0.0,0.0,74,0.00,,---,0.00,VWS V14.01,2013-07-20 17:00:00,
2013-07-20 13:01:00,80.5,71.5,30.05,SW,223,0.0,0.0,74,0.00,,---,0.00,VWS V14.01,2013-07-20 17:01:00,
2013-07-20 13:06:00,80.3,71.3,30.04,WSW,237,0.0,0.0,74,0.00,,---,0.00,VWS V14.01,2013-07-20 17:06:00,
2013-07-20 13:11:00,80.2,71.6,30.04,SW,223,0.0,0.0,75,0.00,,---,0.00,VWS V14.01,2013-07-20 17:11:00,
2013-07-20 13:16:00,80.1,71.5,30.04,WSW,242,0.0,0.0,75,0.00,,---,0.00,VWS V14.01,2013-07-20 17:16:00,
2013-07-20 13:21:00,80.1,71.5,30.04,SW,227,0.0,0.0,75,0.00,,---,0.00,VWS V14.01,2013-07-20 17:21:00,
2013-07-20 13:26:00,80.1,71.9,30.04,SW,231,0.0,0.0,76,0.00,,---,0.00,VWS V14.01,2013-07-20 17:26:00,
2013-07-20 13:30:00,80.5,71.8,30.03,SSW,213,0.0,0.0,75,0.00,,---,0.00,VWS V14.01,2013-07-20 17:30:00,
2013-07-20 13:31:00,80.4,71.8,30.03,SW,224,0.0,0.0,75,0.00,,---,0.00,VWS V14.01,2013-07-20 17:31:00,
2013-07-20 13:36:00,80.5,72.2,30.03,WSW,248,0.0,0.0,76,0.00,,---,0.00,VWS V14.01,2013-07-20 17:36:00,
2013-07-20 13:41:00,80.3,72.1,30.03,SW,233,0.0,0.0,76,0.00,,---,0.00,VWS V14.01,2013-07-20 17:41:00,
2013-07-20 13:46:00,80.2,71.9,30.03,SW,226,0.0,0.0,76,0.00,,---,0.00,VWS V14.01,2013-07-20 17:46:00,
2013-07-20 13:51:00,80.6,72.7,30.03,SW,217,0.0,0.0,77,0.00,,---,0.00,VWS V14.01,2013-07-20 17:51:00,
2013-07-20 13:56:00,81.0,72.3,30.03,SSW,209,0.0,0.0,75,0.00,,---,0.00,VWS V14.01,2013-07-20 17:56:00,
2013-07-20 14:00:00,81.4,72.3,30.02,SW,229,0.0,0.0,74,0.00,,---,0.00,VWS V14.01,2013-07-20 18:00:00,
2013-07-20 14:01:00,81.4,72.3,30.03,SW,235,0.0,0.0,74,0.00,,---,0.00,VWS V14.01,2013-07-20 18:01:00,
2013-07-20 14:06:00,80.9,71.4,30.02,SW,225,0.0,0.0,73,0.00,,---,0.00,VWS V14.01,2013-07-20 18:06:00,
2013-07-20 14:11:00,80.8,71.3,30.02,SW,225,0.0,0.0,73,0.00,,---,0.00,VWS V14.01,2013-07-20 18:11:00,
2013-07-20 14:16:00,80.8,71.7,30.02,SW,220,0.0,0.0,74,0.00,,---,0.00,VWS V14.01,2013-07-20 18:16:00,
2013-07-20 14:21:00,80.8,72.1,30.02,SW,221,0.0,0.0,75,0.00,,---,0.00,VWS V14.01,2013-07-20 18:21:00,
2013-07-20 14:26:00,81.2,73.3,30.01,SW,225,0.0,0.0,77,0.00,,---,0.00,VWS V14.01,2013-07-20 18:26:00,
2013-07-20 14:30:00,81.3,73.0,30.01,SW,221,0.0,0.0,76,0.00,,---,0.00,VWS V14.01,2013-07-20 18:30:00,
2013-07-20 14:31:00,81.2,72.5,30.01,SW,227,0.0,0.0,75,0.00,,---,0.00,VWS V14.01,2013-07-20 18:31:00,
2013-07-20 14:36:00,81.0,72.3,30.01,SW,217,0.0,0.0,75,0.00,,---,0.00,VWS V14.01,2013-07-20 18:36:00,
2013-07-20 14:41:00,81.5,73.2,30.00,SSW,200,0.0,0.0,76,0.00,,---,0.00,VWS V14.01,2013-07-20 18:41:00,
2013-07-20 14:46:00,82.1,73.4,30.00,SSW,213,0.0,0.0,75,0.00,,---,0.00,VWS V14.01,2013-07-20 18:46:00,
2013-07-20 14:51:00,82.6,73.5,30.00,SSW,192,0.0,0.0,74,0.00,,---,0.00,VWS V14.01,2013-07-20 18:51:00,
2013-07-20 14:56:00,83.3,74.6,30.00,SW,216,0.0,0.0,75,0.00,,---,0.00,VWS V14.01,2013-07-20 18:56:00,
2013-07-20 15:00:00,83.5,73.9,30.00,SSW,213,0.0,0.0,73,0.00,,---,0.00,VWS V14.01,2013-07-20 19:00:00,
2013-07-20 15:01:00,83.3,73.3,30.00,SW,219,0.0,0.0,72,0.00,,---,0.00,VWS V14.01,2013-07-20 19:01:00,
2013-07-20 15:06:00,82.9,73.4,30.00,SW,222,0.0,0.0,73,0.00,,---,0.00,VWS V14.01,2013-07-20 19:06:00,
2013-07-20 15:11:00,83.1,73.6,30.00,SW,221,0.0,0.0,73,0.00,,---,0.00,VWS V14.01,2013-07-20 19:11:00,
2013-07-20 15:17:00,83.3,74.2,29.99,SSW,206,0.0,0.0,74,0.00,,---,0.00,VWS V14.01,2013-07-20 19:17:00,
2013-07-20 15:22:00,82.7,73.6,29.99,SW,227,0.0,0.0,74,0.00,,---,0.00,VWS V14.01,2013-07-20 19:22:00,
2013-07-20 15:27:00,82.3,73.6,29.99,SW,227,0.0,0.0,75,0.00,,---,0.00,VWS V14.01,2013-07-20 19:27:00,
2013-07-20 15:30:00,82.1,73.8,29.99,SSW,198,0.0,0.0,76,0.00,,---,0.00,VWS V14.01,2013-07-20 19:30:00,
2013-07-20 15:32:00,81.9,73.6,29.99,SSW,207,0.0,0.0,76,0.00,,---,0.00,VWS V14.01,2013-07-20 19:32:00,
2013-07-20 15:37:00,81.7,73.4,29.98,SW,225,0.0,0.0,76,0.00,,---,0.00,VWS V14.01,2013-07-20 19:37:00,
2013-07-20 15:42:00,81.7,73.4,29.99,SSW,207,0.0,0.0,76,0.00,,---,0.00,VWS V14.01,2013-07-20 19:42:00,
2013-07-20 15:47:00,81.8,73.1,29.99,SW,219,0.0,0.0,75,0.00,,---,0.00,VWS V14.01,2013-07-20 19:47:00,
2013-07-20 15:52:00,81.8,73.1,29.99,SSW,209,0.0,0.0,75,0.00,,---,0.00,VWS V14.01,2013-07-20 19:52:00,
2013-07-20 15:57:00,81.8,73.1,29.99,SSW,202,0.0,0.0,75,0.00,,---,0.00,VWS V14.01,2013-07-20 19:57:00,
2013-07-20 16:00:00,81.8,73.1,29.99,SSW,206,0.0,0.0,75,0.00,,---,0.00,VWS V14.01,2013-07-20 20:00:00,
2013-07-20 16:02:00,81.8,73.1,29.99,WSW,241,0.0,0.0,75,0.00,,---,0.00,VWS V14.01,2013-07-20 20:02:00,
2013-07-20 16:07:00,81.9,72.4,29.98,SW,225,0.0,0.0,73,0.00,,---,0.00,VWS V14.01,2013-07-20 20:07:00,
2013-07-20 16:12:00,82.3,73.6,29.97,SSW,208,0.0,0.0,75,0.00,,---,0.00,VWS V14.01,2013-07-20 20:12:00,
2013-07-20 16:17:00,83.1,74.0,29.97,SW,219,0.0,0.0,74,0.00,,---,0.00,VWS V14.01,2013-07-20 20:17:00,
2013-07-20 16:22:00,83.4,73.8,29.98,SSW,209,0.0,0.0,73,0.00,,---,0.00,VWS V14.01,2013-07-20 20:22:00,
2013-07-20 16:27:00,84.0,72.3,29.97,SSW,202,0.0,0.0,68,0.00,,---,0.00,VWS V14.01,2013-07-20 20:27:00,
2013-07-20 16:30:00,84.1,72.0,29.97,SW,231,0.0,0.0,67,0.00,,---,0.00,VWS V14.01,2013-07-20 20:30:00,
2013-07-20 16:32:00,83.4,74.2,29.97,WSW,240,0.0,0.0,74,0.00,,---,0.00,VWS V14.01,2013-07-20 20:32:00,
2013-07-20 16:37:00,82.7,74.4,29.98,SW,229,0.0,0.0,76,0.00,,---,0.00,VWS V14.01,2013-07-20 20:37:00,
2013-07-20 16:42:00,81.6,72.9,29.99,SSW,211,0.0,0.0,75,0.00,,---,0.00,VWS V14.01,2013-07-20 20:42:00,
2013-07-20 16:47:00,81.1,73.2,29.99,SSW,207,0.0,0.0,77,0.00,,---,0.00,VWS V14.01,2013-07-20 20:47:00,
2013-07-20 16:53:00,80.9,72.2,29.99,SW,222,0.0,0.0,75,0.00,,---,0.00,VWS V14.01,2013-07-20 20:53:00,
2013-07-20 16:58:00,81.0,72.7,29.98,SW,234,0.0,0.0,76,0.00,,---,0.00,VWS V14.01,2013-07-20 20:58:00,
2013-07-20 17:00:00,81.0,72.7,29.99,SW,217,0.0,0.0,76,0.00,,---,0.00,VWS V14.01,2013-07-20 21:00:00,
2013-07-20 17:03:00,80.8,72.5,29.99,SSW,213,0.0,0.0,76,0.00,,---,0.00,VWS V14.01,2013-07-20 21:03:00,
2013-07-20 17:08:00,81.7,75.3,29.98,NW,304,3.0,6.0,81,0.00,,---,0.00,VWS V14.01,2013-07-20 21:08:00,
2013-07-20 17:13:00,81.6,75.2,29.99,WNW,293,2.0,10.0,81,0.00,,---,0.00,VWS V14.01,2013-07-20 21:13:00,
2013-07-20 17:18:00,81.5,75.1,29.99,West,273,0.0,10.0,81,0.00,,---,0.00,VWS V14.01,2013-07-20 21:18:00,
2013-07-20 17:23:00,81.4,75.0,29.98,WNW,290,0.0,10.0,81,0.00,,---,0.00,VWS V14.01,2013-07-20 21:23:00,
2013-07-20 17:28:00,81.3,74.9,29.98,West,276,0.0,10.0,81,0.00,,---,0.00,VWS V14.01,2013-07-20 21:28:00,
2013-07-20 17:30:00,81.3,74.9,29.98,WNW,286,0.0,10.0,81,0.00,,---,0.00,VWS V14.01,2013-07-20 21:30:00,
2013-07-20 17:33:00,81.2,74.8,29.98,WNW,283,0.0,4.0,81,0.00,,---,0.00,VWS V14.01,2013-07-20 21:33:00,
2013-07-20 17:38:00,81.2,75.2,29.98,West,272,0.0,7.0,82,0.00,,---,0.00,VWS V14.01,2013-07-20 21:38:00,
2013-07-20 17:43:00,81.2,75.2,29.98,WSW,256,0.0,7.0,82,0.00,,---,0.00,VWS V14.01,2013-07-20 21:43:00,
2013-07-20 17:48:00,81.1,75.1,29.98,West,259,0.0,7.0,82,0.00,,---,0.00,VWS V14.01,2013-07-20 21:48:00,
2013-07-20 17:53:00,81.2,74.8,29.98,West,278,0.0,11.0,81,0.00,,---,0.00,VWS V14.01,2013-07-20 21:53:00,
2013-07-20 17:58:00,81.2,74.8,29.98,WSW,246,1.0,11.0,81,0.00,,---,0.00,VWS V14.01,2013-07-20 21:58:00,
2013-07-20 18:00:00,81.2,74.8,29.98,WSW,257,5.0,11.0,81,0.00,,---,0.00,VWS V14.01,2013-07-20 22:00:00,
2013-07-20 18:04:00,81.2,74.8,29.98,WNW,300,3.0,7.0,81,0.00,,---,0.00,VWS V14.01,2013-07-20 22:04:00,
2013-07-20 18:09:00,81.2,74.8,29.98,SW,229,5.0,7.0,81,0.00,,---,0.00,VWS V14.01,2013-07-20 22:09:00,
2013-07-20 18:14:00,81.2,74.8,29.98,ENE,67,2.0,7.0,81,0.00,,---,0.00,VWS V14.01,2013-07-20 22:14:00,
2013-07-20 18:19:00,81.2,74.8,29.98,SW,224,0.0,7.0,81,0.00,,---,0.00,VWS V14.01,2013-07-20 22:19:00,
2013-07-20 18:24:00,81.3,74.9,29.98,SW,222,0.0,7.0,81,0.00,,---,0.00,VWS V14.01,2013-07-20 22:24:00,
2013-07-20 18:29:00,81.3,74.9,29.98,WSW,243,0.0,7.0,81,0.00,,---,0.00,VWS V14.01,2013-07-20 22:29:00,
2013-07-20 18:30:00,81.3,74.9,29.98,WSW,249,1.0,7.0,81,0.00,,---,0.00,VWS V14.01,2013-07-20 22:30:00,
2013-07-20 18:34:00,81.3,74.5,29.98,ENE,68,0.0,4.0,80,0.00,,---,0.00,VWS V14.01,2013-07-20 22:34:00,
2013-07-20 18:39:00,81.3,74.5,29.98,ENE,63,0.0,4.0,80,0.00,,---,0.00,VWS V14.01,2013-07-20 22:39:00,
2013-07-20 18:44:00,81.2,74.1,29.99,West,272,2.0,9.0,79,0.00,,---,0.00,VWS V14.01,2013-07-20 22:44:00,
2013-07-20 18:49:00,81.1,74.0,29.99,WSW,246,4.0,9.0,79,0.00,,---,0.00,VWS V14.01,2013-07-20 22:49:00,
2013-07-20 18:54:00,81.1,74.0,29.99,WSW,258,2.0,9.0,79,0.00,,---,0.00,VWS V14.01,2013-07-20 22:54:00,
2013-07-20 18:59:00,81.0,73.9,29.99,West,281,2.0,9.0,79,0.00,,---,0.00,VWS V14.01,2013-07-20 22:59:00,
2013-07-20 19:00:00,81.0,73.9,29.99,West,281,2.0,9.0,79,0.00,,---,0.00,VWS V14.01,2013-07-20 23:00:00,
2013-07-20 19:04:00,81.0,73.9,29.99,West,281,2.0,2.0,79,0.00,,---,0.00,VWS V14.01,2013-07-20 23:04:00,
2013-07-20 19:09:00,81.0,73.9,29.98,West,281,2.0,2.0,79,0.00,,---,0.00,VWS V14.01,2013-07-20 23:09:00,
2013-07-20 19:15:00,81.0,73.9,29.99,West,281,2.0,2.0,79,0.00,,---,0.00,VWS V14.01,2013-07-20 23:15:00,
2013-07-20 19:20:00,81.0,73.9,29.98,West,281,2.0,2.0,79,0.00,,---,0.00,VWS V14.01,2013-07-20 23:20:00,
2013-07-20 19:25:00,81.0,73.9,29.98,West,281,2.0,2.0,79,0.00,,---,0.00,VWS V14.01,2013-07-20 23:25:00,
2013-07-20 19:30:00,81.0,73.9,29.98,West,281,2.0,2.0,79,0.00,,---,0.00,VWS V14.01,2013-07-20 23:30:00,
2013-07-20 19:35:00,81.0,73.9,29.98,West,281,2.0,2.0,79,0.00,,---,0.00,VWS V14.01,2013-07-20 23:35:00,
2013-07-20 19:40:00,81.0,73.9,29.99,West,281,2.0,2.0,79,0.00,,---,0.00,VWS V14.01,2013-07-20 23:40:00,
2013-07-20 19:45:00,81.0,73.9,29.98,West,281,2.0,2.0,79,0.00,,---,0.00,VWS V14.01,2013-07-20 23:45:00,
2013-07-20 19:50:00,81.0,73.9,29.99,West,281,2.0,2.0,79,0.00,,---,0.00,VWS V14.01,2013-07-20 23:50:00,
2013-07-20 19:55:00,81.0,73.9,29.99,West,281,2.0,2.0,79,0.00,,---,0.00,VWS V14.01,2013-07-20 23:55:00,
2013-07-20 20:00:00,81.0,73.9,29.99,West,281,2.0,2.0,79,0.00,,---,0.00,VWS V14.01,2013-07-21 00:00:00,
2013-07-20 20:06:00,81.0,73.9,29.99,West,281,2.0,2.0,79,0.00,,---,0.00,VWS V14.01,2013-07-21 00:06:00,
2013-07-20 20:11:00,81.0,73.9,29.99,West,281,2.0,2.0,79,0.00,,---,0.00,VWS V14.01,2013-07-21 00:11:00,
2013-07-20 20:16:00,81.0,73.9,29.99,West,281,2.0,2.0,79,0.00,,---,0.00,VWS V14.01,2013-07-21 00:16:00,
2013-07-20 20:21:00,81.0,73.9,29.99,West,281,2.0,2.0,79,0.00,,---,0.00,VWS V14.01,2013-07-21 00:21:00,
2013-07-20 20:26:00,81.0,73.9,29.99,West,281,2.0,2.0,79,0.00,,---,0.00,VWS V14.01,2013-07-21 00:26:00,
2013-07-20 20:30:00,81.0,73.9,29.99,West,281,2.0,2.0,79,0.00,,---,0.00,VWS V14.01,2013-07-21 00:30:00,
2013-07-20 20:31:00,81.0,73.9,29.99,West,281,2.0,2.0,79,0.00,,---,0.00,VWS V14.01,2013-07-21 00:31:00,
2013-07-20 20:36:00,81.0,73.9,29.99,West,281,2.0,2.0,79,0.00,,---,0.00,VWS V14.01,2013-07-21 00:36:00,
2013-07-20 20:41:00,81.0,73.9,29.99,West,281,2.0,2.0,79,0.00,,---,0.00,VWS V14.01,2013-07-21 00:41:00,
2013-07-20 20:46:00,81.0,73.9,29.98,West,281,2.0,2.0,79,0.00,,---,0.00,VWS V14.01,2013-07-21 00:46:00,
2013-07-20 20:51:00,81.0,73.9,29.99,West,281,2.0,2.0,79,0.00,,---,0.00,VWS V14.01,2013-07-21 00:51:00,
2013-07-20 20:56:00,81.0,73.9,29.99,West,281,2.0,2.0,79,0.00,,---,0.00,VWS V14.01,2013-07-21 00:56:00,
2013-07-20 21:00:00,81.0,73.9,29.99,West,281,2.0,2.0,79,0.00,,---,0.00,VWS V14.01,2013-07-21 01:00:00,
2013-07-20 21:01:00,81.0,73.9,29.99,West,281,2.0,2.0,79,0.00,,---,0.00,VWS V14.01,2013-07-21 01:01:00,
2013-07-20 21:06:00,81.0,73.9,29.99,West,281,2.0,2.0,79,0.00,,---,0.00,VWS V14.01,2013-07-21 01:06:00,
2013-07-20 21:11:00,81.0,73.9,30.00,West,281,2.0,2.0,79,0.00,,---,0.00,VWS V14.01,2013-07-21 01:11:00,
2013-07-20 21:16:00,81.0,73.9,30.00,West,281,2.0,2.0,79,0.00,,---,0.00,VWS V14.01,2013-07-21 01:16:00,
2013-07-20 21:21:00,81.0,73.9,30.00,West,281,2.0,2.0,79,0.00,,---,0.00,VWS V14.01,2013-07-21 01:21:00,
2013-07-20 21:26:00,81.0,73.9,30.00,West,281,2.0,2.0,79,0.00,,---,0.00,VWS V14.01,2013-07-21 01:26:00,
2013-07-20 21:30:00,81.0,73.9,30.00,West,281,2.0,2.0,79,0.00,,---,0.00,VWS V14.01,2013-07-21 01:30:00,
2013-07-20 21:32:00,81.0,73.9,30.00,West,281,2.0,2.0,79,0.00,,---,0.00,VWS V14.01,2013-07-21 01:32:00,
2013-07-20 21:37:00,81.0,73.9,30.00,West,281,2.0,2.0,79,0.00,,---,0.00,VWS V14.01,2013-07-21 01:37:00,
2013-07-20 21:42:00,81.0,73.9,30.00,West,281,2.0,2.0,79,0.00,,---,0.00,VWS V14.01,2013-07-21 01:42:00,
2013-07-20 21:47:00,81.0,73.9,30.01,West,281,2.0,2.0,79,0.00,,---,0.00,VWS V14.01,2013-07-21 01:47:00,
2013-07-20 21:52:00,81.0,73.9,30.00,West,281,2.0,2.0,79,0.00,,---,0.00,VWS V14.01,2013-07-21 01:52:00,
2013-07-20 21:57:00,81.0,73.9,30.00,West,281,2.0,2.0,79,0.00,,---,0.00,VWS V14.01,2013-07-21 01:57:00,
2013-07-20 22:00:00,81.0,73.9,30.00,West,281,2.0,2.0,79,0.00,,---,0.00,VWS V14.01,2013-07-21 02:00:00,
2013-07-20 22:02:00,81.0,73.9,30.00,West,281,2.0,2.0,79,0.00,,---,0.00,VWS V14.01,2013-07-21 02:02:00,
2013-07-20 22:07:00,81.0,73.9,30.01,West,281,2.0,2.0,79,0.00,,---,0.00,VWS V14.01,2013-07-21 02:07:00,
2013-07-20 22:12:00,81.0,73.9,30.00,West,281,2.0,2.0,79,0.00,,---,0.00,VWS V14.01,2013-07-21 02:12:00,
2013-07-20 22:17:00,81.0,73.9,30.00,West,281,2.0,2.0,79,0.00,,---,0.00,VWS V14.01,2013-07-21 02:17:00,
2013-07-20 22:22:00,81.0,73.9,30.00,West,281,2.0,2.0,79,0.00,,---,0.00,VWS V14.01,2013-07-21 02:22:00,
2013-07-20 22:27:00,81.0,73.9,30.00,West,281,2.0,2.0,79,0.00,,---,0.00,VWS V14.01,2013-07-21 02:27:00,
2013-07-20 22:30:00,81.0,73.9,30.00,West,281,2.0,2.0,79,0.00,,---,0.00,VWS V14.01,2013-07-21 02:30:00,
2013-07-20 22:32:00,81.0,73.9,30.01,West,281,2.0,2.0,79,0.00,,---,0.00,VWS V14.01,2013-07-21 02:32:00,
2013-07-20 22:37:00,81.0,73.9,30.00,West,281,2.0,2.0,79,0.00,,---,0.00,VWS V14.01,2013-07-21 02:37:00,
2013-07-20 22:42:00,81.0,73.9,30.01,West,281,2.0,2.0,79,0.00,,---,0.00,VWS V14.01,2013-07-21 02:42:00,
2013-07-20 22:47:00,81.0,73.9,30.01,West,281,2.0,2.0,79,0.00,,---,0.00,VWS V14.01,2013-07-21 02:47:00,
2013-07-20 22:52:00,81.0,73.9,30.02,West,281,2.0,2.0,79,0.00,,---,0.00,VWS V14.01,2013-07-21 02:52:00,
2013-07-20 22:57:00,81.0,73.9,30.02,West,281,2.0,2.0,79,0.00,,---,0.00,VWS V14.01,2013-07-21 02:57:00,
2013-07-20 23:00:00,81.0,73.9,30.02,West,281,2.0,2.0,79,0.00,,---,0.00,VWS V14.01,2013-07-21 03:00:00,
2013-07-20 23:02:00,81.0,73.9,30.02,West,281,2.0,2.0,79,0.00,,---,0.00,VWS V14.01,2013-07-21 03:02:00,
2013-07-20 23:07:00,81.0,73.9,30.02,West,281,2.0,2.0,79,0.00,,---,0.00,VWS V14.01,2013-07-21 03:07:00,
2013-07-20 23:12:00,81.0,73.9,30.02,West,281,2.0,2.0,79,0.00,,---,0.00,VWS V14.01,2013-07-21 03:12:00,
2013-07-20 23:17:00,81.0,73.9,30.02,West,281,2.0,2.0,79,0.00,,---,0.00,VWS V14.01,2013-07-21 03:17:00,
2013-07-20 23:22:00,81.0,73.9,30.02,West,281,2.0,2.0,79,0.00,,---,0.00,VWS V14.01,2013-07-21 03:22:00,
2013-07-20 23:27:00,81.0,73.9,30.03,West,281,2.0,2.0,79,0.00,,---,0.00,VWS V14.01,2013-07-21 03:27:00,
2013-07-20 23:30:00,81.0,73.9,30.03,West,281,2.0,2.0,79,0.00,,---,0.00,VWS V14.01,2013-07-21 03:30:00,
2013-07-20 23:33:00,81.0,73.9,30.03,West,281,2.0,2.0,79,0.00,,---,0.00,VWS V14.01,2013-07-21 03:33:00,
2013-07-20 23:38:00,81.0,73.9,30.02,West,281,2.0,2.0,79,0.00,,---,0.00,VWS V14.01,2013-07-21 03:38:00,
2013-07-20 23:43:00,77.2,70.2,30.02,SW,232,6.0,7.0,79,0.00,,---,0.00,VWS V14.01,2013-07-21 03:43:00,
2013-07-20 23:48:00,77.2,73.4,30.02,WSW,237,4.0,7.0,88,0.00,,---,0.00,VWS V14.01,2013-07-21 03:48:00,
2013-07-20 23:53:00,77.0,73.2,30.01,SW,223,4.0,7.0,88,0.00,,---,0.00,VWS V14.01,2013-07-21 03:53:00,
2013-07-20 23:58:00,76.9,73.1,30.02,West,280,5.0,10.0,88,0.00,,---,0.00,VWS V14.01,2013-07-21 03:58:00,